Year,Month,Day,Hour,Minute,Value (Times are PST for temperature in C)
2006,04,25,00,00,14.10
2006,04,25,00,01,14.00
2006,04,25,00,02,14.00
2006,04,25,00,03,14.00
2006,04,25,00,04,14.00
2006,04,25,00,05,14.00
2006,04,25,00,06,13.90
2006,04,25,00,07,13.90
2006,04,25,00,08,13.90
2006,04,25,00,09,13.80
2006,04,25,00,10,13.70
2006,04,25,00,11,13.70
2006,04,25,00,12,13.70
2006,04,25,00,13,13.70
2006,04,25,00,14,13.70
2006,04,25,00,15,13.70
2006,04,25,00,16,13.70
2006,04,25,00,17,13.70
2006,04,25,00,18,13.70
2006,04,25,00,19,13.70
2006,04,25,00,20,13.70
2006,04,25,00,21,13.70
2006,04,25,00,22,13.60
2006,04,25,00,23,13.60
2006,04,25,00,24,13.60
2006,04,25,00,25,13.60
2006,04,25,00,26,13.60
2006,04,25,00,27,13.50
2006,04,25,00,28,13.50
2006,04,25,00,29,13.50
2006,04,25,00,30,13.50
2006,04,25,00,31,13.40
2006,04,25,00,32,13.40
2006,04,25,00,33,13.40
2006,04,25,00,34,13.40
2006,04,25,00,35,13.40
2006,04,25,00,36,13.40
2006,04,25,00,37,13.40
2006,04,25,00,38,13.40
2006,04,25,00,39,13.40
2006,04,25,00,40,13.30
2006,04,25,00,41,13.30
2006,04,25,00,42,13.30
2006,04,25,00,43,13.30
2006,04,25,00,44,13.30
2006,04,25,00,45,13.30
2006,04,25,00,46,13.30
2006,04,25,00,47,13.20
2006,04,25,00,48,13.20
2006,04,25,00,49,13.20
2006,04,25,00,50,13.10
2006,04,25,00,51,13.10
2006,04,25,00,52,13.10
2006,04,25,00,53,13.10
2006,04,25,00,54,13.10
2006,04,25,00,55,13.10
2006,04,25,00,56,13.10
2006,04,25,00,57,13.10
2006,04,25,00,58,13.10
2006,04,25,00,59,13.10
2006,04,25,01,00,13.00
2006,04,25,01,01,13.10
2006,04,25,01,02,13.00
2006,04,25,01,03,13.00
2006,04,25,01,04,13.00
2006,04,25,01,05,13.00
2006,04,25,01,06,13.00
2006,04,25,01,07,13.00
2006,04,25,01,08,13.00
2006,04,25,01,09,13.00
2006,04,25,01,10,13.00
2006,04,25,01,11,13.00
2006,04,25,01,12,13.00
2006,04,25,01,13,13.00
2006,04,25,01,14,13.00
2006,04,25,01,15,12.90
2006,04,25,01,16,12.90
2006,04,25,01,17,12.90
2006,04,25,01,18,12.90
2006,04,25,01,19,12.80
2006,04,25,01,20,12.80
2006,04,25,01,21,12.80
2006,04,25,01,22,12.80
2006,04,25,01,23,12.80
2006,04,25,01,24,12.80
2006,04,25,01,25,12.80
2006,04,25,01,26,12.80
2006,04,25,01,27,12.80
2006,04,25,01,28,12.80
2006,04,25,01,29,12.80
2006,04,25,01,30,12.80
2006,04,25,01,31,12.80
2006,04,25,01,32,12.80
2006,04,25,01,33,12.80
2006,04,25,01,34,12.80
2006,04,25,01,35,12.80
2006,04,25,01,36,12.80
2006,04,25,01,37,12.80
2006,04,25,01,38,12.80
2006,04,25,01,39,12.80
2006,04,25,01,40,12.70
2006,04,25,01,41,12.70
2006,04,25,01,42,12.70
2006,04,25,01,43,12.60
2006,04,25,01,44,12.60
2006,04,25,01,45,12.60
2006,04,25,01,46,12.60
2006,04,25,01,47,12.60
2006,04,25,01,48,12.60
2006,04,25,01,49,12.60
2006,04,25,01,50,12.60
2006,04,25,01,51,12.60
2006,04,25,01,52,12.60
2006,04,25,01,53,12.60
2006,04,25,01,54,12.60
2006,04,25,01,55,12.60
2006,04,25,01,56,12.60
2006,04,25,01,57,12.60
2006,04,25,01,58,12.60
2006,04,25,01,59,12.60
2006,04,25,02,00,12.50
2006,04,25,02,01,12.50
2006,04,25,02,02,12.50
2006,04,25,02,03,12.50
2006,04,25,02,04,12.50
2006,04,25,02,05,12.50
2006,04,25,02,06,12.50
2006,04,25,02,07,12.50
2006,04,25,02,08,12.50
2006,04,25,02,09,12.50
2006,04,25,02,10,12.50
2006,04,25,02,11,12.50
2006,04,25,02,12,12.40
2006,04,25,02,13,12.40
2006,04,25,02,14,12.40
2006,04,25,02,15,12.40
2006,04,25,02,16,12.40
2006,04,25,02,17,12.40
2006,04,25,02,18,12.30
2006,04,25,02,19,12.30
2006,04,25,02,20,12.30
2006,04,25,02,21,12.30
2006,04,25,02,22,12.30
2006,04,25,02,23,12.30
2006,04,25,02,24,12.30
2006,04,25,02,25,12.30
2006,04,25,02,26,12.30
2006,04,25,02,27,12.20
2006,04,25,02,28,12.20
2006,04,25,02,29,12.10
2006,04,25,02,30,12.00
2006,04,25,02,31,12.00
2006,04,25,02,32,11.90
2006,04,25,02,33,11.90
2006,04,25,02,34,11.80
2006,04,25,02,35,11.80
2006,04,25,02,36,11.80
2006,04,25,02,37,11.80
2006,04,25,02,38,11.80
2006,04,25,02,39,11.80
2006,04,25,02,40,11.80
2006,04,25,02,41,11.80
2006,04,25,02,42,11.80
2006,04,25,02,43,11.80
2006,04,25,02,44,11.80
2006,04,25,02,45,11.80
2006,04,25,02,46,11.80
2006,04,25,02,47,11.80
2006,04,25,02,48,11.80
2006,04,25,02,49,11.80
2006,04,25,02,50,11.80
2006,04,25,02,51,11.80
2006,04,25,02,52,11.80
2006,04,25,02,53,11.80
2006,04,25,02,54,11.80
2006,04,25,02,55,11.80
2006,04,25,02,56,11.80
2006,04,25,02,57,11.80
2006,04,25,02,58,11.80
2006,04,25,02,59,11.80
2006,04,25,03,00,11.80
2006,04,25,03,01,11.80
2006,04,25,03,02,11.90
2006,04,25,03,03,11.90
2006,04,25,03,04,12.00
2006,04,25,03,05,12.00
2006,04,25,03,06,12.00
2006,04,25,03,07,12.10
2006,04,25,03,08,12.10
2006,04,25,03,09,12.20
2006,04,25,03,10,12.20
2006,04,25,03,11,12.30
2006,04,25,03,12,12.30
2006,04,25,03,13,12.30
2006,04,25,03,14,12.30
2006,04,25,03,15,12.30
2006,04,25,03,16,12.30
2006,04,25,03,17,12.30
2006,04,25,03,18,12.30
2006,04,25,03,19,12.30
2006,04,25,03,20,12.30
2006,04,25,03,21,12.30
2006,04,25,03,22,12.30
2006,04,25,03,23,12.30
2006,04,25,03,24,12.30
2006,04,25,03,25,12.30
2006,04,25,03,26,12.20
2006,04,25,03,27,12.20
2006,04,25,03,28,12.20
2006,04,25,03,29,12.20
2006,04,25,03,30,12.20
2006,04,25,03,31,12.20
2006,04,25,03,32,12.20
2006,04,25,03,33,12.20
2006,04,25,03,34,12.20
2006,04,25,03,35,12.20
2006,04,25,03,36,12.20
2006,04,25,03,37,12.20
2006,04,25,03,38,12.20
2006,04,25,03,39,12.10
2006,04,25,03,40,12.10
2006,04,25,03,41,12.10
2006,04,25,03,42,12.10
2006,04,25,03,43,12.00
2006,04,25,03,44,12.00
2006,04,25,03,45,12.00
2006,04,25,03,46,12.00
2006,04,25,03,47,12.00
2006,04,25,03,48,12.00
2006,04,25,03,49,12.00
2006,04,25,03,50,12.00
2006,04,25,03,51,12.00
2006,04,25,03,52,12.00
2006,04,25,03,53,12.00
2006,04,25,03,54,12.00
2006,04,25,03,55,12.00
2006,04,25,03,56,12.00
2006,04,25,03,57,12.00
2006,04,25,03,58,12.00
2006,04,25,03,59,12.10
2006,04,25,04,00,12.10
2006,04,25,04,01,12.10
2006,04,25,04,02,12.10
2006,04,25,04,03,12.10
2006,04,25,04,04,12.10
2006,04,25,04,05,12.20
2006,04,25,04,06,12.20
2006,04,25,04,07,12.20
2006,04,25,04,08,12.20
2006,04,25,04,09,12.20
2006,04,25,04,10,12.10
2006,04,25,04,11,12.10
2006,04,25,04,12,12.10
2006,04,25,04,13,12.10
2006,04,25,04,14,12.00
2006,04,25,04,15,12.00
2006,04,25,04,16,12.00
2006,04,25,04,17,11.90
2006,04,25,04,18,11.90
2006,04,25,04,19,11.90
2006,04,25,04,20,11.80
2006,04,25,04,21,11.80
2006,04,25,04,22,11.80
2006,04,25,04,23,11.80
2006,04,25,04,24,11.80
2006,04,25,04,25,11.80
2006,04,25,04,26,11.80
2006,04,25,04,27,11.80
2006,04,25,04,28,11.80
2006,04,25,04,29,11.70
2006,04,25,04,30,11.70
2006,04,25,04,31,11.70
2006,04,25,04,32,11.70
2006,04,25,04,33,11.60
2006,04,25,04,34,11.60
2006,04,25,04,35,11.60
2006,04,25,04,36,11.50
2006,04,25,04,37,11.40
2006,04,25,04,38,11.30
2006,04,25,04,39,11.20
2006,04,25,04,40,11.10
2006,04,25,04,41,10.90
2006,04,25,04,42,10.80
2006,04,25,04,43,10.70
2006,04,25,04,44,10.60
2006,04,25,04,45,10.50
2006,04,25,04,46,10.40
2006,04,25,04,47,10.30
2006,04,25,04,48,10.20
2006,04,25,04,49,10.10
2006,04,25,04,50,10.10
2006,04,25,04,51,10.00
2006,04,25,04,52,9.90
2006,04,25,04,53,9.90
2006,04,25,04,54,9.80
2006,04,25,04,55,9.70
2006,04,25,04,56,9.60
2006,04,25,04,57,9.60
2006,04,25,04,58,9.50
2006,04,25,04,59,9.50
2006,04,25,05,00,9.40
2006,04,25,05,01,9.40
2006,04,25,05,02,9.40
2006,04,25,05,03,9.30
2006,04,25,05,04,9.30
2006,04,25,05,05,9.20
2006,04,25,05,06,9.20
2006,04,25,05,07,9.20
2006,04,25,05,08,9.20
2006,04,25,05,09,9.10
2006,04,25,05,10,9.10
2006,04,25,05,11,9.00
2006,04,25,05,12,9.00
2006,04,25,05,13,8.90
2006,04,25,05,14,8.90
2006,04,25,05,15,8.90
2006,04,25,05,16,8.80
2006,04,25,05,17,8.80
2006,04,25,05,18,8.80
2006,04,25,05,19,8.70
2006,04,25,05,20,8.70
2006,04,25,05,21,8.70
2006,04,25,05,22,8.80
2006,04,25,05,23,8.90
2006,04,25,05,24,9.00
2006,04,25,05,25,9.00
2006,04,25,05,26,9.10
2006,04,25,05,27,9.10
2006,04,25,05,28,9.20
2006,04,25,05,29,9.20
2006,04,25,05,30,9.20
2006,04,25,05,31,9.10
2006,04,25,05,32,9.20
2006,04,25,05,33,9.20
2006,04,25,05,34,9.20
2006,04,25,05,35,9.20
2006,04,25,05,36,9.20
2006,04,25,05,37,9.30
2006,04,25,05,38,9.30
2006,04,25,05,39,9.40
2006,04,25,05,40,9.40
2006,04,25,05,41,9.40
2006,04,25,05,42,9.30
2006,04,25,05,43,9.20
2006,04,25,05,44,9.00
2006,04,25,05,45,8.80
2006,04,25,05,46,8.60
2006,04,25,05,47,8.50
2006,04,25,05,48,8.40
2006,04,25,05,49,8.30
2006,04,25,05,50,8.20
2006,04,25,05,51,8.10
2006,04,25,05,52,8.00
2006,04,25,05,53,7.90
2006,04,25,05,54,7.80
2006,04,25,05,55,7.80
2006,04,25,05,56,7.70
2006,04,25,05,57,7.70
2006,04,25,05,58,7.60
2006,04,25,05,59,7.60
2006,04,25,06,00,7.50
2006,04,25,06,01,7.50
2006,04,25,06,02,7.50
2006,04,25,06,03,7.40
2006,04,25,06,04,7.40
2006,04,25,06,05,7.30
2006,04,25,06,06,7.30
2006,04,25,06,07,7.30
2006,04,25,06,08,7.30
2006,04,25,06,09,7.30
2006,04,25,06,10,7.20
2006,04,25,06,11,7.20
2006,04,25,06,12,7.20
2006,04,25,06,13,7.20
2006,04,25,06,14,7.20
2006,04,25,06,15,7.20
2006,04,25,06,16,7.20
2006,04,25,06,17,7.10
2006,04,25,06,18,7.10
2006,04,25,06,19,7.10
2006,04,25,06,20,7.10
2006,04,25,06,21,7.10
2006,04,25,06,22,7.10
2006,04,25,06,23,7.10
2006,04,25,06,24,7.00
2006,04,25,06,25,7.00
2006,04,25,06,26,7.10
2006,04,25,06,27,7.10
2006,04,25,06,28,7.20
2006,04,25,06,29,7.20
2006,04,25,06,30,7.30
2006,04,25,06,31,7.30
2006,04,25,06,32,7.20
2006,04,25,06,33,7.10
2006,04,25,06,34,7.00
2006,04,25,06,35,7.00
2006,04,25,06,36,6.90
2006,04,25,06,37,6.80
2006,04,25,06,38,6.80
2006,04,25,06,39,6.80
2006,04,25,06,40,6.80
2006,04,25,06,41,6.80
2006,04,25,06,42,6.80
2006,04,25,06,43,6.80
2006,04,25,06,44,6.80
2006,04,25,06,45,6.80
2006,04,25,06,46,6.80
2006,04,25,06,47,6.80
2006,04,25,06,48,6.80
2006,04,25,06,49,6.80
2006,04,25,06,50,6.80
2006,04,25,06,51,6.90
2006,04,25,06,52,6.90
2006,04,25,06,53,7.00
2006,04,25,06,54,7.00
2006,04,25,06,55,7.10
2006,04,25,06,56,7.10
2006,04,25,06,57,7.20
2006,04,25,06,58,7.20
2006,04,25,06,59,7.30
2006,04,25,07,00,7.30
2006,04,25,07,01,7.40
2006,04,25,07,02,7.40
2006,04,25,07,03,7.50
2006,04,25,07,04,7.60
2006,04,25,07,05,7.70
2006,04,25,07,06,7.80
2006,04,25,07,07,7.80
2006,04,25,07,08,7.90
2006,04,25,07,09,8.00
2006,04,25,07,10,8.00
2006,04,25,07,11,8.10
2006,04,25,07,12,8.20
2006,04,25,07,13,8.40
2006,04,25,07,14,8.50
2006,04,25,07,15,8.60
2006,04,25,07,16,8.70
2006,04,25,07,17,8.80
2006,04,25,07,18,8.90
2006,04,25,07,19,9.00
2006,04,25,07,20,9.10
2006,04,25,07,21,9.30
2006,04,25,07,22,9.40
2006,04,25,07,23,9.50
2006,04,25,07,24,9.60
2006,04,25,07,25,9.70
2006,04,25,07,26,9.80
2006,04,25,07,27,9.90
2006,04,25,07,28,9.90
2006,04,25,07,29,10.00
2006,04,25,07,30,10.10
2006,04,25,07,31,10.20
2006,04,25,07,32,10.20
2006,04,25,07,33,10.30
2006,04,25,07,34,10.30
2006,04,25,07,35,10.30
2006,04,25,07,36,10.30
2006,04,25,07,37,10.30
2006,04,25,07,38,10.30
2006,04,25,07,39,10.30
2006,04,25,07,40,10.40
2006,04,25,07,41,10.40
2006,04,25,07,42,10.40
2006,04,25,07,43,10.40
2006,04,25,07,44,10.30
2006,04,25,07,45,10.30
2006,04,25,07,46,10.20
2006,04,25,07,47,10.30
2006,04,25,07,48,10.30
2006,04,25,07,49,10.40
2006,04,25,07,50,10.40
2006,04,25,07,51,10.50
2006,04,25,07,52,10.60
2006,04,25,07,53,10.60
2006,04,25,07,54,10.70
2006,04,25,07,55,10.80
2006,04,25,07,56,10.90
2006,04,25,07,57,11.10
2006,04,25,07,58,11.30
2006,04,25,07,59,11.40
2006,04,25,08,00,11.60
2006,04,25,08,01,11.70
2006,04,25,08,02,11.80
2006,04,25,08,03,11.90
2006,04,25,08,04,12.00
2006,04,25,08,05,12.10
2006,04,25,08,06,12.20
2006,04,25,08,07,12.30
2006,04,25,08,08,12.30
2006,04,25,08,09,12.30
2006,04,25,08,10,12.20
2006,04,25,08,11,12.20
2006,04,25,08,12,12.20
2006,04,25,08,13,12.20
2006,04,25,08,14,12.10
2006,04,25,08,15,12.10
2006,04,25,08,16,12.00
2006,04,25,08,17,11.90
2006,04,25,08,18,11.90
2006,04,25,08,19,11.80
2006,04,25,08,20,11.90
2006,04,25,08,21,12.00
2006,04,25,08,22,12.00
2006,04,25,08,23,11.90
2006,04,25,08,24,11.90
2006,04,25,08,25,11.80
2006,04,25,08,26,11.80
2006,04,25,08,27,11.70
2006,04,25,08,28,11.70
2006,04,25,08,29,11.60
2006,04,25,08,30,11.60
2006,04,25,08,31,11.60
2006,04,25,08,32,11.60
2006,04,25,08,33,11.60
2006,04,25,08,34,11.60
2006,04,25,08,35,11.60
2006,04,25,08,36,11.60
2006,04,25,08,37,11.60
2006,04,25,08,38,11.60
2006,04,25,08,39,11.60
2006,04,25,08,40,11.60
2006,04,25,08,41,11.60
2006,04,25,08,42,11.60
2006,04,25,08,43,11.70
2006,04,25,08,44,11.70
2006,04,25,08,45,11.80
2006,04,25,08,46,11.80
2006,04,25,08,47,11.80
2006,04,25,08,48,11.80
2006,04,25,08,49,11.80
2006,04,25,08,50,11.80
2006,04,25,08,51,11.80
2006,04,25,08,52,11.80
2006,04,25,08,53,11.80
2006,04,25,08,54,11.90
2006,04,25,08,55,11.90
2006,04,25,08,56,11.80
2006,04,25,08,57,11.80
2006,04,25,08,58,11.80
2006,04,25,08,59,11.70
2006,04,25,09,00,11.60
2006,04,25,09,01,11.60
2006,04,25,09,02,11.60
2006,04,25,09,03,11.60
2006,04,25,09,04,11.70
2006,04,25,09,05,11.70
2006,04,25,09,06,11.80
2006,04,25,09,07,11.70
2006,04,25,09,08,11.70
2006,04,25,09,09,11.60
2006,04,25,09,10,11.60
2006,04,25,09,11,11.60
2006,04,25,09,12,11.70
2006,04,25,09,13,11.80
2006,04,25,09,14,11.90
2006,04,25,09,15,12.00
2006,04,25,09,16,12.10
2006,04,25,09,17,12.20
2006,04,25,09,18,12.30
2006,04,25,09,19,12.30
2006,04,25,09,20,12.30
2006,04,25,09,21,12.40
2006,04,25,09,22,12.40
2006,04,25,09,23,12.50
2006,04,25,09,24,12.60
2006,04,25,09,25,12.70
2006,04,25,09,26,12.80
2006,04,25,09,27,12.80
2006,04,25,09,28,12.80
2006,04,25,09,29,12.90
2006,04,25,09,30,13.00
2006,04,25,09,31,13.00
2006,04,25,09,32,13.00
2006,04,25,09,33,13.00
2006,04,25,09,34,12.90
2006,04,25,09,35,12.90
2006,04,25,09,36,13.00
2006,04,25,09,37,13.00
2006,04,25,09,38,13.00
2006,04,25,09,39,13.10
2006,04,25,09,40,13.10
2006,04,25,09,41,13.20
2006,04,25,09,42,13.30
2006,04,25,09,43,13.30
2006,04,25,09,44,13.40
2006,04,25,09,45,13.60
2006,04,25,09,46,13.70
2006,04,25,09,47,13.80
2006,04,25,09,48,14.00
2006,04,25,09,49,14.10
2006,04,25,09,50,14.20
2006,04,25,09,51,14.20
2006,04,25,09,52,14.40
2006,04,25,09,53,14.40
2006,04,25,09,54,14.40
2006,04,25,09,55,14.30
2006,04,25,09,56,14.30
2006,04,25,09,57,14.30
2006,04,25,09,58,14.20
2006,04,25,09,59,14.10
2006,04,25,10,00,14.00
2006,04,25,10,01,13.90
2006,04,25,10,02,13.70
2006,04,25,10,03,13.70
2006,04,25,10,04,13.60
2006,04,25,10,05,13.50
2006,04,25,10,06,13.50
2006,04,25,10,07,13.50
2006,04,25,10,08,13.40
2006,04,25,10,09,13.40
2006,04,25,10,10,13.40
2006,04,25,10,11,13.40
2006,04,25,10,12,13.50
2006,04,25,10,13,13.60
2006,04,25,10,14,13.70
2006,04,25,10,15,13.80
2006,04,25,10,16,14.00
2006,04,25,10,17,14.10
2006,04,25,10,18,14.30
2006,04,25,10,19,14.30
2006,04,25,10,20,14.30
2006,04,25,10,21,14.40
2006,04,25,10,22,14.40
2006,04,25,10,23,14.40
2006,04,25,10,24,14.30
2006,04,25,10,25,14.40
2006,04,25,10,26,14.30
2006,04,25,10,27,14.30
2006,04,25,10,28,14.20
2006,04,25,10,29,14.20
2006,04,25,10,30,14.20
2006,04,25,10,31,14.20
2006,04,25,10,32,14.20
2006,04,25,10,33,14.20
2006,04,25,10,34,14.40
2006,04,25,10,35,14.50
2006,04,25,10,36,14.50
2006,04,25,10,37,14.40
2006,04,25,10,38,14.30
2006,04,25,10,39,14.20
2006,04,25,10,40,14.20
2006,04,25,10,41,14.10
2006,04,25,10,42,14.10
2006,04,25,10,43,14.10
2006,04,25,10,44,14.10
2006,04,25,10,45,14.20
2006,04,25,10,46,14.20
2006,04,25,10,47,14.40
2006,04,25,10,48,14.40
2006,04,25,10,49,14.50
2006,04,25,10,50,14.50
2006,04,25,10,51,14.50
2006,04,25,10,52,14.50
2006,04,25,10,53,14.60
2006,04,25,10,54,14.60
2006,04,25,10,55,14.50
2006,04,25,10,56,14.30
2006,04,25,10,57,14.20
2006,04,25,10,58,14.30
2006,04,25,10,59,14.20
2006,04,25,11,00,14.10
2006,04,25,11,01,14.10
2006,04,25,11,02,14.00
2006,04,25,11,03,14.00
2006,04,25,11,04,14.00
2006,04,25,11,05,14.00
2006,04,25,11,06,13.90
2006,04,25,11,07,13.90
2006,04,25,11,08,14.00
2006,04,25,11,09,14.00
2006,04,25,11,10,14.00
2006,04,25,11,11,14.00
2006,04,25,11,12,14.00
2006,04,25,11,13,14.00
2006,04,25,11,14,14.00
2006,04,25,11,15,13.90
2006,04,25,11,16,13.90
2006,04,25,11,17,13.80
2006,04,25,11,18,13.90
2006,04,25,11,19,14.00
2006,04,25,11,20,14.00
2006,04,25,11,21,14.10
2006,04,25,11,22,14.20
2006,04,25,11,23,14.20
2006,04,25,11,24,14.20
2006,04,25,11,25,14.10
2006,04,25,11,26,14.10
2006,04,25,11,27,14.00
2006,04,25,11,28,14.00
2006,04,25,11,29,14.00
2006,04,25,11,30,14.10
2006,04,25,11,31,14.10
2006,04,25,11,32,14.10
2006,04,25,11,33,14.00
2006,04,25,11,34,14.00
2006,04,25,11,35,14.00
2006,04,25,11,36,14.00
2006,04,25,11,37,14.00
2006,04,25,11,38,14.00
2006,04,25,11,39,14.10
2006,04,25,11,40,14.10
2006,04,25,11,41,14.00
2006,04,25,11,42,13.90
2006,04,25,11,43,14.00
2006,04,25,11,44,14.10
2006,04,25,11,45,14.30
2006,04,25,11,46,14.40
2006,04,25,11,47,14.40
2006,04,25,11,48,14.40
2006,04,25,11,49,14.40
2006,04,25,11,50,14.30
2006,04,25,11,51,14.30
2006,04,25,11,52,14.20
2006,04,25,11,53,14.20
2006,04,25,11,54,14.20
2006,04,25,11,55,14.10
2006,04,25,11,56,14.10
2006,04,25,11,57,14.10
2006,04,25,11,58,14.10
2006,04,25,11,59,14.10
2006,04,25,12,00,14.20
2006,04,25,12,01,14.30
2006,04,25,12,02,14.30
2006,04,25,12,03,14.30
2006,04,25,12,04,14.30
2006,04,25,12,05,14.30
2006,04,25,12,06,14.40
2006,04,25,12,07,14.50
2006,04,25,12,08,14.50
2006,04,25,12,09,14.60
2006,04,25,12,10,14.60
2006,04,25,12,11,14.70
2006,04,25,12,12,14.70
2006,04,25,12,13,14.60
2006,04,25,12,14,14.40
2006,04,25,12,15,14.30
2006,04,25,12,16,14.30
2006,04,25,12,17,14.20
2006,04,25,12,18,14.20
2006,04,25,12,19,14.20
2006,04,25,12,20,14.20
2006,04,25,12,21,14.20
2006,04,25,12,22,14.20
2006,04,25,12,23,14.10
2006,04,25,12,24,13.90
2006,04,25,12,25,13.70
2006,04,25,12,26,13.70
2006,04,25,12,27,13.80
2006,04,25,12,28,13.90
2006,04,25,12,29,13.90
2006,04,25,12,30,14.00
2006,04,25,12,31,14.20
2006,04,25,12,32,14.20
2006,04,25,12,33,14.10
2006,04,25,12,34,14.10
2006,04,25,12,35,14.20
2006,04,25,12,36,14.20
2006,04,25,12,37,14.30
2006,04,25,12,38,14.20
2006,04,25,12,39,14.20
2006,04,25,12,40,14.30
2006,04,25,12,41,14.30
2006,04,25,12,42,14.40
2006,04,25,12,43,14.50
2006,04,25,12,44,14.50
2006,04,25,12,45,14.50
2006,04,25,12,46,14.60
2006,04,25,12,47,14.60
2006,04,25,12,48,14.60
2006,04,25,12,49,14.60
2006,04,25,12,50,14.60
2006,04,25,12,51,14.60
2006,04,25,12,52,14.60
2006,04,25,12,53,14.60
2006,04,25,12,54,14.60
2006,04,25,12,55,14.80
2006,04,25,12,56,14.80
2006,04,25,12,57,14.70
2006,04,25,12,58,14.60
2006,04,25,12,59,14.50
2006,04,25,13,00,14.40
2006,04,25,13,01,14.30
2006,04,25,13,02,14.30
2006,04,25,13,03,14.30
2006,04,25,13,04,14.40
2006,04,25,13,05,14.60
2006,04,25,13,06,14.70
2006,04,25,13,07,14.70
2006,04,25,13,08,14.80
2006,04,25,13,09,14.70
2006,04,25,13,10,14.60
2006,04,25,13,11,14.50
2006,04,25,13,12,14.50
2006,04,25,13,13,14.50
2006,04,25,13,14,14.50
2006,04,25,13,15,14.50
2006,04,25,13,16,14.60
2006,04,25,13,17,14.60
2006,04,25,13,18,14.60
2006,04,25,13,19,14.60
2006,04,25,13,20,14.50
2006,04,25,13,21,14.50
2006,04,25,13,22,14.60
2006,04,25,13,23,14.70
2006,04,25,13,24,14.70
2006,04,25,13,25,14.70
2006,04,25,13,26,14.60
2006,04,25,13,27,14.60
2006,04,25,13,28,14.70
2006,04,25,13,29,14.70
2006,04,25,13,30,14.50
2006,04,25,13,31,14.50
2006,04,25,13,32,14.50
2006,04,25,13,33,14.50
2006,04,25,13,34,14.60
2006,04,25,13,35,14.70
2006,04,25,13,36,14.80
2006,04,25,13,37,14.80
2006,04,25,13,38,14.80
2006,04,25,13,39,14.90
2006,04,25,13,40,14.90
2006,04,25,13,41,14.90
2006,04,25,13,42,15.00
2006,04,25,13,43,15.00
2006,04,25,13,44,15.00
2006,04,25,13,45,15.10
2006,04,25,13,46,15.30
2006,04,25,13,47,15.40
2006,04,25,13,48,15.50
2006,04,25,13,49,15.50
2006,04,25,13,50,15.60
2006,04,25,13,51,15.60
2006,04,25,13,52,15.50
2006,04,25,13,53,15.50
2006,04,25,13,54,15.50
2006,04,25,13,55,15.50
2006,04,25,13,56,15.50
2006,04,25,13,57,15.50
2006,04,25,13,58,15.50
2006,04,25,13,59,15.60
2006,04,25,14,00,15.60
2006,04,25,14,01,15.70
2006,04,25,14,02,15.80
2006,04,25,14,03,15.80
2006,04,25,14,04,15.80
2006,04,25,14,05,15.80
2006,04,25,14,06,15.90
2006,04,25,14,07,16.00
2006,04,25,14,08,16.10
2006,04,25,14,09,16.20
2006,04,25,14,10,16.30
2006,04,25,14,11,16.40
2006,04,25,14,12,16.40
2006,04,25,14,13,16.40
2006,04,25,14,14,16.30
2006,04,25,14,15,16.30
2006,04,25,14,16,16.20
2006,04,25,14,17,16.00
2006,04,25,14,18,15.90
2006,04,25,14,19,15.90
2006,04,25,14,20,16.00
2006,04,25,14,21,16.10
2006,04,25,14,22,16.20
2006,04,25,14,23,16.40
2006,04,25,14,24,16.40
2006,04,25,14,25,16.40
2006,04,25,14,26,16.40
2006,04,25,14,27,16.30
2006,04,25,14,28,16.20
2006,04,25,14,29,16.10
2006,04,25,14,30,16.10
2006,04,25,14,31,16.10
2006,04,25,14,32,16.20
2006,04,25,14,33,16.40
2006,04,25,14,34,16.40
2006,04,25,14,35,16.40
2006,04,25,14,36,16.40
2006,04,25,14,37,16.30
2006,04,25,14,38,16.10
2006,04,25,14,39,16.10
2006,04,25,14,40,16.10
2006,04,25,14,41,16.20
2006,04,25,14,42,16.30
2006,04,25,14,43,16.40
2006,04,25,14,44,16.30
2006,04,25,14,45,16.20
2006,04,25,14,46,16.10
2006,04,25,14,47,16.00
2006,04,25,14,48,16.00
2006,04,25,14,49,16.10
2006,04,25,14,50,16.20
2006,04,25,14,51,16.30
2006,04,25,14,52,16.40
2006,04,25,14,53,16.40
2006,04,25,14,54,16.30
2006,04,25,14,55,16.20
2006,04,25,14,56,16.20
2006,04,25,14,57,16.10
2006,04,25,14,58,16.10
2006,04,25,14,59,16.10
2006,04,25,15,00,16.10
2006,04,25,15,01,16.10
2006,04,25,15,02,15.90
2006,04,25,15,03,15.80
2006,04,25,15,04,15.60
2006,04,25,15,05,15.60
2006,04,25,15,06,15.60
2006,04,25,15,07,15.60
2006,04,25,15,08,15.60
2006,04,25,15,09,15.70
2006,04,25,15,10,15.70
2006,04,25,15,11,15.60
2006,04,25,15,12,15.60
2006,04,25,15,13,15.40
2006,04,25,15,14,15.20
2006,04,25,15,15,15.00
2006,04,25,15,16,15.00
2006,04,25,15,17,15.00
2006,04,25,15,18,15.10
2006,04,25,15,19,15.20
2006,04,25,15,20,15.20
2006,04,25,15,21,15.10
2006,04,25,15,22,15.10
2006,04,25,15,23,15.00
2006,04,25,15,24,14.90
2006,04,25,15,25,14.80
2006,04,25,15,26,14.80
2006,04,25,15,27,14.70
2006,04,25,15,28,14.70
2006,04,25,15,29,14.70
2006,04,25,15,30,14.60
2006,04,25,15,31,14.70
2006,04,25,15,32,14.70
2006,04,25,15,33,14.80
2006,04,25,15,34,14.80
2006,04,25,15,35,14.80
2006,04,25,15,36,14.80
2006,04,25,15,37,14.90
2006,04,25,15,38,14.90
2006,04,25,15,39,14.90
2006,04,25,15,40,15.00
2006,04,25,15,41,15.00
2006,04,25,15,42,15.10
2006,04,25,15,43,15.10
2006,04,25,15,44,15.10
2006,04,25,15,45,15.10
2006,04,25,15,46,15.00
2006,04,25,15,47,15.00
2006,04,25,15,48,15.10
2006,04,25,15,49,15.10
2006,04,25,15,50,15.20
2006,04,25,15,51,15.20
2006,04,25,15,52,15.20
2006,04,25,15,53,15.20
2006,04,25,15,54,15.20
2006,04,25,15,55,15.20
2006,04,25,15,56,15.20
2006,04,25,15,57,15.20
2006,04,25,15,58,15.20
2006,04,25,15,59,15.10
2006,04,25,16,00,15.10
2006,04,25,16,01,15.00
2006,04,25,16,02,15.00
2006,04,25,16,03,15.00
2006,04,25,16,04,14.90
2006,04,25,16,05,14.90
2006,04,25,16,06,14.90
2006,04,25,16,07,14.90
2006,04,25,16,08,14.90
2006,04,25,16,09,14.90
2006,04,25,16,10,14.90
2006,04,25,16,11,14.80
2006,04,25,16,12,14.80
2006,04,25,16,13,14.80
2006,04,25,16,14,14.80
2006,04,25,16,15,14.90
2006,04,25,16,16,15.00
2006,04,25,16,17,15.00
2006,04,25,16,18,15.00
2006,04,25,16,19,14.90
2006,04,25,16,20,14.90
2006,04,25,16,21,14.90
2006,04,25,16,22,15.00
2006,04,25,16,23,15.00
2006,04,25,16,24,15.00
2006,04,25,16,25,15.10
2006,04,25,16,26,15.10
2006,04,25,16,27,15.20
2006,04,25,16,28,15.20
2006,04,25,16,29,15.30
2006,04,25,16,30,15.30
2006,04,25,16,31,15.30
2006,04,25,16,32,15.30
2006,04,25,16,33,15.30
2006,04,25,16,34,15.30
2006,04,25,16,35,15.30
2006,04,25,16,36,15.30
2006,04,25,16,37,15.30
2006,04,25,16,38,15.30
2006,04,25,16,39,15.30
2006,04,25,16,40,15.30
2006,04,25,16,41,15.30
2006,04,25,16,42,15.40
2006,04,25,16,43,15.40
2006,04,25,16,44,15.40
2006,04,25,16,45,15.50
2006,04,25,16,46,15.50
2006,04,25,16,47,15.60
2006,04,25,16,48,15.70
2006,04,25,16,49,15.80
2006,04,25,16,50,15.80
2006,04,25,16,51,15.80
2006,04,25,16,52,15.80
2006,04,25,16,53,15.80
2006,04,25,16,54,15.90
2006,04,25,16,55,15.90
2006,04,25,16,56,15.90
2006,04,25,16,57,15.80
2006,04,25,16,58,15.80
2006,04,25,16,59,15.80
2006,04,25,17,00,15.70
2006,04,25,17,01,15.60
2006,04,25,17,02,15.60
2006,04,25,17,03,15.60
2006,04,25,17,04,15.60
2006,04,25,17,05,15.60
2006,04,25,17,06,15.60
2006,04,25,17,07,15.60
2006,04,25,17,08,15.60
2006,04,25,17,09,15.60
2006,04,25,17,10,15.70
2006,04,25,17,11,15.70
2006,04,25,17,12,15.80
2006,04,25,17,13,15.80
2006,04,25,17,14,15.80
2006,04,25,17,15,15.70
2006,04,25,17,16,15.70
2006,04,25,17,17,15.70
2006,04,25,17,18,15.70
2006,04,25,17,19,15.70
2006,04,25,17,20,15.60
2006,04,25,17,21,15.60
2006,04,25,17,22,15.60
2006,04,25,17,23,15.60
2006,04,25,17,24,15.60
2006,04,25,17,25,15.60
2006,04,25,17,26,15.60